[[{"header":{"parameterUnit":"m.s-1","parameterCategory":1,"la1":30.2991,"la2":30.254,"lo1":-89.0895,"lo2":-89.0444,"dy":0.0017,"dx":0.0017,"nx":28,"ny":28,"refTime":"2026-03-02T09:00:00:Z","depth":0,"parameterNumber":2,"parameterNumberName":"U-component_of_WINDS"},"data":[0,0,0,0,0,0,0,0,0,0,0,0,0,0,0,0,0,0,0,0,0,0,0,0,0,0,0,0,0,0,0,0,0,0,0,0,0,0,0,0,0,0,0,0,0,0,0,0,0,0,0,0,0,0,0,0,0,0,-2.8512,-2.8513,0,-2.8608,-2.8609,-2.861,-2.859,-2.8588,-2.8586,-2.8584,-2.8689,-2.8693,-2.8698,0,0,0,0,0,0,0,0,0,0,0,0,0,-2.8318,-2.8322,-2.8512,-2.8513,-2.8514,-2.8608,-2.8609,-2.8611,-2.859,-2.8588,-2.8586,-2.8584,-2.8687,-2.8693,-2.8698,0,0,0,0,0,0,0,0,0,0,0,0,0,-2.8407,-2.8323,-2.8512,-2.8515,-2.8516,-2.8608,-2.8609,-2.8611,-2.8591,-2.8588,-2.8585,-2.8583,-2.8686,-2.8692,-2.8699,-2.8794,0,0,-2.8719,-2.8722,0,0,0,0,0,0,0,0,-2.8402,-2.8414,-2.8513,-2.8515,-2.8517,-2.8584,-2.8579,-2.8673,-2.8591,-2.8563,-2.8584,-2.8581,-2.8657,-2.8665,-2.869,-2.8799,-2.8803,-2.872,-2.8724,-2.8727,-2.8729,0,0,0,0,0,0,0,-2.8396,-2.841,-2.855,-2.8515,-2.8517,-2.8515,-2.8524,-2.8597,-2.8624,-2.8565,-2.8564,-2.8575,-2.8657,-2.8683,-2.8692,-2.8805,-2.872,-2.8725,-2.873,-2.8732,-2.9,-2.9003,0,0,0,0,0,0,-2.8387,-2.8405,-2.8547,-2.8553,-2.8451,-2.852,-2.8531,-2.8565,-2.8623,-2.8629,-2.8577,-2.8574,-2.8673,-2.8684,-2.8695,-2.8812,-2.8727,-2.8733,-2.8737,-2.8997,-2.9001,-2.9004,0,0,0,0,0,0,-2.8383,-2.84,-2.8543,-2.8479,-2.8497,-2.8526,-2.8565,-2.8569,-2.8595,-2.8632,-2.8637,-2.8598,-2.8671,-2.8686,-2.877,-2.8815,-2.8736,-2.8742,-2.8993,-2.8998,-2.9002,-2.9044,0,0,0,0,0,0,-2.8378,-2.8399,-2.8433,-2.848,-2.85,-2.8614,-2.8568,-2.8572,-2.8605,-2.8602,-2.8653,-2.8659,-2.867,-2.876,-2.8776,-2.8823,-2.8747,-2.8989,-2.8996,-2.9001,-2.9039,-2.905,-2.9059,0,0,0,0,0,-2.8371,-2.8442,-2.8435,-2.8452,-2.8544,-2.8616,-2.8628,-2.8637,-2.8609,-2.8645,-2.867,-2.8658,-2.8808,-2.8769,-2.8787,-2.8836,-2.8987,-2.8994,-2.9001,-2.9034,-2.9048,-2.9059,0,0,0,0,0,0,-2.8402,-2.8448,-2.8441,-2.8529,-2.8568,-2.8612,-2.8658,-2.8651,-2.8701,-2.8696,-2.8707,-2.8719,-2.8805,-2.8829,-2.8785,-2.8933,-2.8894,-2.8905,-2.8913,-2.8926,-2.8936,-2.8928,-2.8753,0,0,0,0,0,-2.8419,-2.8472,-2.851,-2.8584,-2.8604,-2.8628,-2.866,-2.8664,-2.8706,-2.8723,-2.8754,-2.8798,-2.8855,-2.8892,-2.8946,-2.9043,-2.9055,-2.9087,-2.9097,-2.9105,-2.9114,-2.9168,-2.9183,-2.9027,-2.9027,-2.9027,0,0,-2.8454,-2.8486,-2.8519,-2.8591,-2.8622,-2.8679,-2.8642,-2.8703,-2.8746,-2.8734,-2.8813,-2.8838,-2.8888,-2.8979,-2.9021,-2.9002,-2.916,-2.9113,-2.912,-2.9124,-2.9177,-2.9192,-2.9205,-2.9032,-2.9031,-2.903,0,0,-2.8548,-2.8577,-2.8642,-2.8674,-2.8721,-2.8737,-2.8753,-2.8799,-2.8814,-2.8895,-2.8887,-2.894,-2.9037,-2.9073,-2.9105,-2.9215,-2.9207,-2.9233,-2.9285,-2.9338,-2.9351,-2.9362,-2.9402,-2.9416,-2.9242,-2.9243,-2.9243,0,-2.8586,-2.8669,-2.8677,-2.8739,-2.8772,-2.8762,-2.883,-2.8862,-2.8925,-2.8949,-2.8928,-2.9051,-2.9084,-2.9184,-2.9211,-2.9236,-2.9257,-2.9226,-2.9348,-2.9359,-2.9369,-2.9408,-2.9423,-2.9245,-2.9245,-2.9245,-2.9244,0,-2.8714,-2.8772,-2.882,-2.888,-2.8919,-2.8983,-2.9004,-2.9042,-2.9044,-2.9063,-2.9147,-2.9187,-2.9249,-2.9274,-2.9277,-2.9376,-2.9363,-2.9345,-2.9305,-2.9387,-2.9423,-2.9438,-2.9249,-2.9248,-2.9248,-2.9247,0,0,-2.8827,-2.8892,-2.8909,-2.8937,-2.8991,-2.9037,-2.9103,-2.9163,-2.9196,-2.9242,-2.9299,-2.9383,-2.9367,-2.9403,-2.941,-2.9457,-2.9543,-2.9433,-2.9435,-2.9452,-2.9656,-2.9668,-2.9685,-2.9539,-2.9541,-2.9544,-2.9652,0,-2.8925,-2.9038,-2.9049,-2.9151,-2.9206,-2.92,-2.9257,-2.9298,-2.9319,-2.937,-2.9394,-2.9453,-2.9428,-2.9449,-2.9496,-2.9523,-2.9584,-2.9515,-2.9593,-2.9596,-2.9579,-2.9704,-2.9717,-2.9817,-2.9666,-2.9668,-2.967,0,-2.9053,-2.9101,-2.9209,-2.9256,-2.9279,-2.9331,-2.9388,-2.9437,-2.9484,-2.9496,-2.9537,-2.9539,-2.961,-2.9569,-2.9668,-2.9621,-2.9654,-2.9673,-2.9677,-2.9684,-2.9637,-2.9714,-2.9849,-2.9864,-2.9693,-2.9691,-2.9689,0,-2.9125,-2.9217,-2.9293,-2.9317,-2.9374,-2.9411,-2.9437,-2.9481,-2.9517,-2.9569,-2.9593,-2.9653,-2.9685,-2.9733,-2.9752,-2.972,-2.9851,-2.9811,-2.9864,-2.9863,-2.989,-2.9888,-3.0032,-2.9913,-2.9913,-2.9913,-2.9912,0,-2.9232,-2.9298,-2.9326,-2.9372,-2.9448,-2.9461,-2.9536,-2.9561,-2.9601,-2.9655,-2.9654,-2.9705,-2.9728,-2.9783,-2.9799,-2.988,-2.9895,-2.9908,-2.9911,-2.9907,-2.9905,-2.9928,-2.9921,-2.9917,-2.9916,-2.9915,-2.9914,0,-2.9323,-2.9344,-2.9427,-2.9475,-2.9488,-2.9542,-2.9584,-2.9631,-2.9652,-2.972,-2.9737,-2.9771,-2.9836,-2.986,-2.9941,-2.9952,-3.0045,-3.0043,-3.0028,-3.0029,-3.008,-3.0075,-3.0242,-3.0266,-3.0132,-3.0134,-3.0135,0,-2.9389,-2.944,-2.9493,-2.9528,-2.9555,-2.9611,-2.9648,-2.9665,-2.9704,-2.9764,-2.9804,-2.9869,-2.9921,-3.0027,-3.0061,-3.0123,-3.0122,-3.0177,-3.0131,-3.0126,-3.0123,-3.0119,-3.0125,-3.0185,-3.0186,-3.0187,-3.0188,0,-2.9505,-2.9513,-2.9565,-2.9622,-2.9665,-2.9711,-2.9756,-2.9786,-2.981,-2.9855,-2.992,-2.9961,-3.0044,-3.0109,-3.0173,-3.0203,-3.0201,-3.0202,-3.0218,-3.0214,-3.0203,-3.0209,-3.005,-3.0198,-3.0197,-3.0196,-3.0196,-3.0195,-2.9585,-2.963,-2.9675,-2.9734,-2.9769,-2.9812,-2.9858,-2.9885,-2.994,-3.0007,-3.0015,-3.0086,-3.0136,-3.0222,-3.0255,-3.0313,-3.0298,-3.0321,-3.0326,-3.0331,-3.0335,-3.0195,-3.0325,-3.0325,-3.0324,-3.0324,-3.0324,0,-2.97,-2.9729,-2.9783,-2.9845,-2.9893,-2.9885,-2.9935,-2.9976,-3.0038,-3.0083,-3.0135,-3.0213,-3.0277,-3.0316,-3.0381,-3.0421,-3.0421,-3.0437,-3.0434,-3.0441,-3.0344,-3.0324,-3.0435,-3.0435,-3.0435,-3.0435,-3.0435,-3.0435,-2.9766,-2.9842,-2.9856,-2.9951,-2.9981,-3.0049,-3.0079,-3.0119,-3.0155,-3.0241,-3.0293,-3.0318,-3.0362,-3.0431,-3.0491,-3.0501,-3.0525,-3.0542,-3.0551,-3.0459,-3.0448,-3.0437,-3.0418,-3.0547,-3.0547,-3.0643,-3.0644,-3.0644]},{"header":{"parameterUnit":"m.s-1","parameterCategory":1,"la1":30.2991,"la2":30.254,"lo1":-89.0895,"lo2":-89.0444,"dy":0.0017,"dx":0.0017,"nx":28,"ny":28,"refTime":"2026-03-02T09:00:00:Z","depth":0,"parameterNumber":3,"parameterNumberName":"V-component_of_WINDS"},"data":[0,0,0,0,0,0,0,0,0,0,0,0,0,0,0,0,0,0,0,0,0,0,0,0,0,0,0,0,0,0,0,0,0,0,0,0,0,0,0,0,0,0,0,0,0,0,0,0,0,0,0,0,0,0,0,0,0,0,1.1232,1.1231,0,1.1193,1.1192,1.1192,1.1187,1.1187,1.1188,1.1188,1.1149,1.1148,1.1147,0,0,0,0,0,0,0,0,0,0,0,0,0,1.1305,1.1304,1.1232,1.1231,1.1231,1.1193,1.1192,1.1192,1.1187,1.1187,1.1188,1.1188,1.115,1.1148,1.1146,0,0,0,0,0,0,0,0,0,0,0,0,0,1.127,1.1303,1.1232,1.1224,1.1223,1.1193,1.1192,1.1191,1.1187,1.1187,1.1188,1.1188,1.115,1.1148,1.1146,1.1122,0,0,1.114,1.1139,0,0,0,0,0,0,0,0,1.1272,1.1268,1.1225,1.1224,1.1223,1.1195,1.1204,1.1168,1.1187,1.12,1.1188,1.1189,1.1164,1.1161,1.1152,1.112,1.1118,1.114,1.1138,1.1137,1.1137,0,0,0,0,0,0,0,1.1275,1.1269,1.1216,1.1225,1.1223,1.1223,1.1219,1.1197,1.118,1.1199,1.1199,1.1194,1.1164,1.1154,1.1151,1.1118,1.114,1.1138,1.1137,1.1136,1.1065,1.1065,0,0,0,0,0,0,1.1278,1.1271,1.1218,1.1215,1.125,1.1221,1.1216,1.1204,1.118,1.1177,1.1194,1.1194,1.1158,1.1154,1.115,1.1121,1.1137,1.1136,1.1134,1.1066,1.1065,1.1065,0,0,0,0,0,0,1.128,1.1274,1.1219,1.1243,1.1236,1.1219,1.1205,1.1203,1.1193,1.1176,1.1173,1.1187,1.1158,1.1153,1.1129,1.1119,1.1135,1.1133,1.1067,1.1066,1.1065,1.1061,0,0,0,0,0,0,1.1282,1.1274,1.1264,1.1243,1.1235,1.1198,1.1204,1.1201,1.119,1.119,1.1169,1.1166,1.1158,1.1132,1.1127,1.1117,1.1131,1.1067,1.1066,1.1065,1.1062,1.106,1.1059,0,0,0,0,0,1.1285,1.1264,1.1263,1.1257,1.1222,1.1197,1.1193,1.1184,1.1189,1.1179,1.1168,1.1167,1.1121,1.113,1.1124,1.1113,1.1068,1.1067,1.1065,1.1063,1.1061,1.1059,0,0,0,0,0,0,1.1285,1.1261,1.126,1.1232,1.1217,1.1197,1.1184,1.1181,1.1164,1.1165,1.1155,1.1151,1.1128,1.1118,1.1128,1.1089,1.1095,1.1093,1.1096,1.1093,1.1092,1.1094,1.1129,0,0,0,0,0,1.1282,1.1263,1.1244,1.1222,1.1214,1.12,1.1189,1.1184,1.1168,1.1161,1.1148,1.1133,1.1116,1.1104,1.1087,1.1061,1.1057,1.1051,1.1049,1.1048,1.1045,1.1032,1.1029,1.106,1.106,1.106,0,0,1.1275,1.126,1.1249,1.1221,1.1208,1.1191,1.1195,1.1175,1.1162,1.1158,1.1135,1.1125,1.1108,1.1083,1.1072,1.1074,1.1037,1.1046,1.1045,1.1043,1.1031,1.1028,1.1025,1.1059,1.1059,1.1059,0,0,1.1253,1.1239,1.1219,1.1207,1.1188,1.1179,1.1175,1.1155,1.1149,1.1125,1.1122,1.1107,1.1077,1.1065,1.1055,1.1031,1.1029,1.1026,1.1016,1.1004,1.1001,1.0999,1.0991,1.0988,1.1024,1.1024,1.1024,0,1.1246,1.1218,1.121,1.119,1.1179,1.1175,1.1156,1.1144,1.1121,1.1113,1.1117,1.108,1.1068,1.1041,1.1035,1.1027,1.1022,1.1027,1.1002,1.1,1.0998,1.099,1.0987,1.1023,1.1023,1.1023,1.1023,0,1.1212,1.1193,1.1179,1.1157,1.1144,1.1125,1.1114,1.1102,1.1099,1.109,1.1067,1.1053,1.1033,1.1027,1.1023,1.1,1.1002,1.1004,1.101,1.0995,1.0987,1.0984,1.1023,1.1023,1.1023,1.1023,0,0,1.1187,1.1161,1.1156,1.1147,1.1126,1.1112,1.1093,1.1074,1.1064,1.1049,1.1034,1.1009,1.1011,1.1,1.0995,1.0984,1.0967,1.0988,1.0987,1.0984,1.0941,1.0939,1.0936,1.0966,1.0966,1.0965,1.0943,0,1.1163,1.1128,1.1121,1.1092,1.1075,1.1072,1.1056,1.1043,1.1035,1.102,1.1012,1.0994,1.0998,1.0992,1.0981,1.0971,1.0958,1.0973,1.0952,1.0952,1.0956,1.0932,1.0929,1.0909,1.094,1.0939,1.0939,0,1.1129,1.1113,1.1082,1.1066,1.1058,1.1044,1.1026,1.1012,1.0997,1.0992,1.0981,1.0977,1.0959,1.0967,1.0942,1.0953,1.0944,1.0939,1.0938,1.0935,1.0944,1.0928,1.0902,1.0899,1.0934,1.0934,1.0935,0,1.1114,1.1085,1.1063,1.1055,1.1035,1.1025,1.1016,1.1002,1.0992,1.0977,1.097,1.0954,1.0944,1.0932,1.0925,1.0932,1.0901,1.0909,1.0897,1.0897,1.089,1.089,1.0862,1.0886,1.0886,1.0886,1.0886,0,1.1088,1.1069,1.1056,1.1043,1.1022,1.1015,1.0995,1.0987,1.0974,1.096,1.0957,1.0944,1.0935,1.0921,1.0916,1.0897,1.0893,1.0889,1.0887,1.0888,1.0889,1.0882,1.0883,1.0885,1.0885,1.0885,1.0885,0,1.1067,1.1058,1.1034,1.1017,1.1013,1.0998,1.0984,1.0972,1.0965,1.0947,1.0942,1.0931,1.0914,1.0906,1.0885,1.0882,1.086,1.086,1.0865,1.0864,1.0853,1.0854,1.0819,1.0814,1.0841,1.0841,1.0841,0,1.105,1.1036,1.1018,1.1008,1.0999,1.0983,1.0972,1.0965,1.0954,1.0937,1.0927,1.091,1.0896,1.087,1.0861,1.0845,1.0845,1.0833,1.0842,1.0844,1.0844,1.0845,1.0844,1.0831,1.0831,1.0831,1.0831,0,1.1021,1.1018,1.1002,1.0986,1.0973,1.096,1.0946,1.0939,1.093,1.0918,1.0901,1.089,1.087,1.0853,1.0837,1.083,1.0829,1.0828,1.0825,1.0825,1.0829,1.0827,1.086,1.0829,1.0829,1.0829,1.0829,1.0829,1.1002,1.0989,1.0975,1.0958,1.0948,1.0936,1.0924,1.0915,1.0901,1.0883,1.088,1.0862,1.085,1.0828,1.082,1.0807,1.0809,1.0804,1.0803,1.0802,1.0801,1.0832,1.0804,1.0804,1.0804,1.0804,1.0804,0,1.0973,1.0964,1.0949,1.0931,1.0918,1.0919,1.0905,1.0894,1.0878,1.0866,1.0853,1.0834,1.0818,1.0808,1.0793,1.0784,1.0784,1.0781,1.0781,1.0779,1.0799,1.0804,1.0781,1.0781,1.0781,1.0781,1.0781,1.0781,1.0956,1.0935,1.0931,1.0905,1.0897,1.0879,1.0871,1.086,1.0851,1.083,1.0817,1.081,1.08,1.0784,1.077,1.0768,1.0762,1.0759,1.0756,1.0775,1.0778,1.078,1.0784,1.0758,1.0758,1.0737,1.0737,1.0737]}]]